Content
SEND FEEDBACK

Daily
Averages
Monthly
Summary
United States of America

WATERLOO, INDIANA


Home > North America > United States > Indiana
Elevation: 910 feet     Latitude: 41 26N     Longitude: 085 02W

WEATHER
 
SELECT A DAY
Number of Records: 151,601;   Date Range: 2/27/08 - 7/21/14
 
SHARE

PRINT THIS DATA

[ ← Previous Day ]
WEATHER ALMANAC - JANUARY 31, 2013
[ Next Day → ]
[ °C ]   °F
Weather ElementAverageHighLow
Temperature21.5 °F30.2 °F (12:35 am)14 °F (10:15 pm)
Dewpoint13.6 °F24.8 °F (12:35 am)5 °F (11:55 pm)
Humidity71.9 %86 % (1:35 am)59 % (12:55 pm)
Barometer29.76 in29.97 in (11:35 pm)29.45 in (12:35 am)
Wind Speed16.4 mph27.6 mph (2:15 am)
Wind Gust36.8 mph (2:15 am)
Weather ElementAverage
Visibility7 mi
Wind DirectionWSW (262.9 °)

Weather ElementTotal
Precipitation---
Heating Degree Days42.9 (Base 65)
Averaged from 70 records on January 31, 2013
WEATHER CONDITIONS BREAKOUT
WIND DIRECTION BREAKOUT
WEATHER BY HOUR - JANUARY 31, 2013
[ °C ]   °F
Local TimeTemperatureDewpointHumidityBarometerVisibilityWind DirectionWind SpeedGust SpeedPrecipitationEventsConditions
12:35 AM30.2 °F24.8 °F80 %29.45 in10.0 miWest (270°)21.9 mph32.2 mphOvercast
12:55 AM30.2 °F23.0 °F75 %29.47 in10.0 miWest (270°)20.7 mph32.2 mphSnowLight Snow
1:15 AM30.2 °F23.0 °F75 %29.48 in5.0 miWest (280°)20.7 mph27.6 mphSnowLight Snow
1:35 AM28.4 °F24.8 °F86 %29.49 in1.2 miWest (280°)26.5 mph34.5 mphSnowLight Snow
1:55 AM28.4 °F21.2 °F74 %29.51 in7.0 miWest (260°)24.2 mph32.2 mphSnowLight Snow
2:15 AM26.6 °F17.6 °F69 %29.53 in10.0 miWest (270°)27.6 mph36.8 mphOvercast
2:35 AM26.6 °F19.4 °F74 %29.54 in10.0 miWest (260°)17.3 mph31.1 mphSnowLight Snow
2:55 AM26.6 °F21.2 °F80 %29.55 in3.0 miWest (260°)20.7 mph27.6 mphSnowLight Snow
3:15 AM26.6 °F19.4 °F74 %29.57 in5.0 miWest (260°)16.1 mph25.3 mphSnowLight Snow
3:35 AM26.6 °F19.4 °F74 %29.57 in7.0 miWest (260°)19.6 mph28.8 mphSnowLight Snow
3:55 AM24.8 °F19.4 °F80 %29.58 in3.0 miWSW (250°)12.7 mph24.2 mphSnowLight Snow
4:15 AM24.8 °F19.4 °F80 %29.59 in7.0 miWest (260°)16.1 mph27.6 mphSnowLight Snow
4:35 AM23.0 °F19.4 °F86 %29.60 in1.0 miWest (260°)20.7 mph25.3 mphSnowLight Snow
4:55 AM23.0 °F17.6 °F80 %29.61 in5.0 miWest (260°)19.6 mph26.5 mphSnowLight Snow
5:15 AM23.0 °F15.8 °F74 %29.62 in7.0 miWSW (250°)16.1 mph25.3 mphSnowLight Snow
5:35 AM23.0 °F15.8 °F74 %29.63 in10.0 miWSW (250°)18.4 mph23.0 mphOvercast
5:55 AM23.0 °F15.8 °F74 %29.63 in10.0 miWSW (250°)15.0 mph26.5 mphOvercast
6:15 AM23.0 °F15.8 °F74 %29.64 in5.0 miWSW (250°)20.7 mph29.9 mphSnowLight Snow
6:35 AM23.0 °F14.0 °F68 %29.65 in10.0 miWSW (250°)15.0 mph25.3 mphOvercast
6:55 AM21.2 °F14.0 °F74 %29.65 in10.0 miWSW (250°)15.0 mph29.9 mphSnowLight Snow
7:15 AM21.2 °F14.0 °F74 %29.67 in5.0 miWest (260°)18.4 mph29.9 mphSnowLight Snow
7:55 AM21.2 °F14.0 °F74 %29.69 in7.0 miWest (260°)11.5 mph24.2 mphSnowLight Snow
8:15 AM21.2 °F12.2 °F68 %29.70 in7.0 miWest (260°)17.3 mph27.6 mphSnowLight Snow
8:35 AM21.2 °F12.2 °F68 %29.71 in10.0 miWest (260°)20.7 mph25.3 mphOvercast
8:55 AM21.2 °F10.4 °F63 %29.72 in10.0 miWSW (250°)15.0 mph23.0 mphOvercast
9:15 AM21.2 °F10.4 °F63 %29.74 in10.0 miWest (260°)19.6 mph26.5 mphOvercast
9:35 AM21.2 °F14.0 °F74 %29.75 in1.5 miWest (260°)11.5 mph18.4 mphSnowLight Snow
9:55 AM19.4 °F14.0 °F80 %29.76 in1.2 miWSW (250°)19.6 mph25.3 mphSnowLight Snow
10:15 AM21.2 °F14.0 °F74 %29.77 in3.0 miWest (260°)12.7 mph19.6 mphSnowLight Snow
10:35 AM21.2 °F12.2 °F68 %29.77 in5.0 miWSW (250°)16.1 mph23.0 mphSnowLight Snow
10:55 AM21.2 °F12.2 °F68 %29.78 in10.0 miWest (260°)17.3 mph26.5 mphOvercast
11:15 AM21.2 °F12.2 °F68 %29.79 in7.0 miWSW (250°)11.5 mph27.6 mphOvercast
11:35 AM21.2 °F14.0 °F74 %29.79 in3.0 miWSW (250°)11.5 mph21.9 mphSnowLight Snow
11:55 AM23.0 °F14.0 °F68 %29.79 in5.0 miWSW (250°)12.7 mph25.3 mphHaze
12:15 PM24.8 °F15.8 °F69 %29.79 in5.0 miWest (260°)15.0 mph24.2 mphSnowLight Snow
12:35 PM24.8 °F15.8 °F69 %29.78 in10.0 miWest (260°)15.0 mph25.3 mphMostly Cloudy
12:55 PM26.6 °F14.0 °F59 %29.78 in10.0 miWSW (250°)15.0 mph23.0 mphOvercast
1:15 PM23.0 °F15.8 °F74 %29.78 in4.0 miWest (260°)15.0 mph25.3 mphSnowLight Snow
1:35 PM23.0 °F15.8 °F74 %29.78 in3.0 miWest (260°)15.0 mph24.2 mphSnowLight Snow
1:55 PM26.6 °F17.6 °F69 %29.79 in5.0 miWest (270°)16.1 mph24.2 mphSnowLight Snow
2:15 PM23.0 °F17.6 °F80 %29.80 in0.5 miWest (270°)13.8 mph19.6 mphSnowSnow
2:35 PM23.0 °F17.6 °F80 %29.80 in0.5 miWest (270°)17.3 mph24.2 mphSnowLight Snow
2:55 PM23.0 °F14.0 °F68 %29.80 in7.0 miWest (270°)19.6 mph29.9 mphSnowLight Snow
3:15 PM23.0 °F14.0 °F68 %29.81 in7.0 miWest (270°)16.1 mph26.5 mphSnowLight Snow
3:35 PM21.2 °F12.2 °F68 %29.81 in10.0 miWest (280°)18.4 mph23.0 mphSnowLight Snow
3:55 PM21.2 °F12.2 °F68 %29.82 in10.0 miWest (270°)16.1 mph25.3 mphOvercast
4:15 PM21.2 °F10.4 °F63 %29.83 in10.0 miWest (260°)18.4 mph27.6 mphOvercast
4:35 PM21.2 °F10.4 °F63 %29.83 in10.0 miWest (270°)19.6 mph28.8 mphMostly Cloudy
4:55 PM19.4 °F10.4 °F68 %29.83 in10.0 miWest (270°)16.1 mphMostly Cloudy
5:15 PM19.4 °F10.4 °F68 %29.84 in10.0 miWest (260°)17.3 mph23.0 mphOvercast
5:35 PM19.4 °F12.2 °F74 %29.85 in1.8 miWest (280°)17.3 mph27.6 mphSnowLight Snow
5:55 PM19.4 °F10.4 °F68 %29.85 in7.0 miWest (280°)12.7 mph18.4 mphOvercast
6:15 PM17.6 °F8.6 °F68 %29.86 in10.0 miWest (270°)17.3 mph23.0 mphOvercast
6:35 PM17.6 °F8.6 °F68 %29.87 in10.0 miWest (270°)12.7 mph24.2 mphOvercast
6:55 PM17.6 °F8.6 °F68 %29.89 in10.0 miWest (270°)16.1 mph21.9 mphOvercast
7:15 PM17.6 °F6.8 °F63 %29.90 in10.0 miWest (270°)15.0 mph23.0 mphOvercast
7:35 PM17.6 °F8.6 °F68 %29.91 in10.0 miWest (270°)13.8 mph23.0 mphOvercast
7:55 PM17.6 °F8.6 °F68 %29.92 in10.0 miWest (260°)11.5 mphOvercast
8:15 PM17.6 °F8.6 °F68 %29.92 in10.0 miWest (270°)12.7 mph18.4 mphOvercast
8:35 PM17.6 °F8.6 °F68 %29.92 in7.0 miWest (260°)11.5 mph20.7 mphSnowLight Snow
8:55 PM17.6 °F10.4 °F73 %29.93 in7.0 miWest (260°)13.8 mph21.9 mphSnowLight Snow
9:15 PM15.8 °F10.4 °F79 %29.93 in4.0 miWest (260°)10.4 mph17.3 mphSnowLight Snow
9:35 PM15.8 °F10.4 °F79 %29.94 in5.0 miWest (260°)11.5 mph18.4 mphSnowLight Snow
9:55 PM15.8 °F8.6 °F73 %29.94 in7.0 miWest (270°)13.8 mph23.0 mphSnowLight Snow
10:15 PM14.0 °F6.8 °F73 %29.95 in10.0 miWest (270°)12.7 mph25.3 mphMostly Cloudy
10:35 PM14.0 °F6.8 °F73 %29.95 in10.0 miWest (280°)18.4 mph23.0 mphMostly Cloudy
10:55 PM14.0 °F6.8 °F73 %29.95 in10.0 miWest (270°)15.0 mph24.2 mphOvercast
11:15 PM14.0 °F6.8 °F73 %29.96 in7.0 miWest (270°)16.1 mph24.2 mphSnowLight Snow
11:35 PM14.0 °F6.8 °F73 %29.97 in7.0 miWest (270°)17.3 mph23.0 mphSnowLight Snow
11:55 PM14.0 °F5.0 °F67 %29.97 in7.0 miWest (260°)13.8 mph26.5 mphOvercast
Hourly data recorded from KGWB, located miles away from Waterloo, Indiana







STORIES FROM OUR PARTNERS